Weather History for Oscoda, MI

Change the Weather History Date:

Tuesday, September 10, 2013

  Actual Average Record
Temperature  
Mean Temperature 82 °F -  
Max Temperature 95 °F 72 °F 95 °F (2013)
Min Temperature 70 °F 52 °F 37 °F (2008)
Cooling Degree Days 18    
Growing Degree Days 32 (Base 50)    
Moisture  
Dew Point 67 °F    
Average Humidity 65    
Maximum Humidity 96    
Minimum Humidity 33    
Precipitation  
Precipitation 0.00 in - - ()
Sea Level Pressure  
Sea Level Pressure 29.84 in    
Wind  
Wind Speed 12 mph (SW)    
Max Wind Speed 22 mph    
Max Gust Speed 22 mph    
Visibility 8 miles    
Events      
Averages and records for this station are not official NWS values.
T = Trace of Precipitation, MM = Missing Value Source: NWS Daily Summary

Daily Weather History Graph

Daily Weather History Graph

Search for Another Location

Airport:

Trip Planner

Search our weather history database for the weather conditions in past years. The results will help you decide how hot, cold, wet, or windy it might be!

Date:

Astronomy

Sep. 10, 2013 Rise Set
Actual Time 7:07 AM EDT 7:53 PM EDT
Civil Twilight 6:37 AM EDT 8:22 PM EDT
Nautical Twilight 6:02 AM EDT 8:57 PM EDT
Astronomical Twilight 5:26 AM EDT 9:33 PM EDT
Moon 12:45 PM EDT (9/10) 10:41 PM EDT (9/10)
Length of Visible Light 13h 44m
Length of Day
12h 46m
Waxing Crescent, 28% of the Moon is Illuminated
Sep 10
Waxing Crescent
Sep 12
First Quarter
Sep 19
Full
Sep 26
Last Quarter
Oct 4
New

Hourly Weather History & Observations

Time (EDT) Temp. Heat Index Dew Point Humidity Pressure Visibility Wind Dir Wind Speed Gust Speed Precip Events Conditions
12:14 AM 70.9 °F - 68.0 °F 91% 29.79 in 7.0 mi SSW 13.8 mph - N/A   Clear
12:33 AM 70.7 °F - 68.0 °F 91% 29.80 in 7.0 mi SSW 11.5 mph 20.7 mph N/A   Clear
12:54 AM 71.2 °F - 68.2 °F 90% 29.79 in 7.0 mi SSW 12.7 mph 17.3 mph N/A   Clear
1:14 AM 71.4 °F - 68.2 °F 89% 29.79 in 7.0 mi SSW 12.7 mph 20.7 mph N/A   Clear
1:33 AM 70.9 °F - 68.0 °F 91% 29.79 in 7.0 mi SW 10.4 mph - N/A   Clear
1:54 AM 70.9 °F - 68.2 °F 91% 29.78 in 7.0 mi SW 15.0 mph - N/A   Clear
2:13 AM 71.2 °F - 68.4 °F 91% 29.78 in 7.0 mi SW 16.1 mph 20.7 mph N/A   Clear
2:34 AM 71.1 °F - 68.5 °F 92% 29.78 in 7.0 mi SW 15.0 mph - N/A   Clear
2:54 AM 70.7 °F - 68.7 °F 93% 29.79 in 5.0 mi SW 12.7 mph - N/A   Clear
3:13 AM 70.7 °F - 68.9 °F 94% 29.79 in 5.0 mi SSW 12.7 mph - N/A   Clear
3:34 AM 70.7 °F - 68.9 °F 94% 29.79 in 5.0 mi SW 11.5 mph - N/A   Clear
3:54 AM 70.7 °F - 68.9 °F 94% 29.79 in 5.0 mi SW 11.5 mph - N/A   Clear
4:13 AM 70.7 °F - 69.1 °F 95% 29.78 in 5.0 mi SSW 12.7 mph - N/A   Clear
4:34 AM 70.7 °F - 68.9 °F 94% 29.78 in 5.0 mi SSW 11.5 mph - N/A   Clear
4:54 AM 70.7 °F - 69.1 °F 95% 29.78 in 5.0 mi SSW 10.4 mph - N/A   Clear
5:13 AM 70.7 °F - 69.3 °F 95% 29.79 in 5.0 mi SW 9.2 mph - N/A   Clear
5:34 AM 70.9 °F - 69.6 °F 96% 29.80 in 5.0 mi SW 9.2 mph - N/A   Clear
5:54 AM 71.1 °F - 69.6 °F 95% 29.80 in 5.0 mi SW 6.9 mph - N/A   Clear
6:13 AM 71.2 °F - 69.8 °F 95% 29.80 in 5.0 mi SW 8.1 mph - N/A   Clear
6:34 AM 71.2 °F - 69.8 °F 95% 29.80 in 5.0 mi SW 10.4 mph - N/A   Clear
6:54 AM 71.6 °F - 69.8 °F 94% 29.81 in 5.0 mi SW 10.4 mph - N/A   Clear
7:13 AM 71.8 °F - 70.0 °F 94% 29.81 in 4.0 mi SW 9.2 mph - N/A   Clear
7:34 AM 72.3 °F - 70.2 °F 93% 29.82 in 5.0 mi SW 10.4 mph - N/A   Clear
7:54 AM 73.0 °F - 70.7 °F 92% 29.82 in 5.0 mi SW 8.1 mph - N/A   Clear
8:13 AM 74.3 °F - 70.7 °F 88% 29.82 in 7.0 mi SW 10.4 mph - N/A   Clear
8:34 AM 75.7 °F - 71.1 °F 85% 29.82 in 7.0 mi SW 9.2 mph - N/A   Clear
8:54 AM 77.4 °F - 71.1 °F 81% 29.83 in 10.0 mi SW 8.1 mph - N/A   Clear
9:13 AM 79.0 °F - 71.1 °F 77% 29.83 in 10.0 mi SW 11.5 mph - N/A   Clear
9:34 AM 80.8 °F 84.6 °F 70.9 °F 72% 29.84 in 10.0 mi SW 12.7 mph - N/A   Clear
9:54 AM 82.4 °F 86.7 °F 70.9 °F 68% 29.84 in 10.0 mi WSW 13.8 mph 18.4 mph N/A   Clear
10:13 AM 83.5 °F 88.0 °F 70.5 °F 65% 29.84 in 10.0 mi SW 15.0 mph - N/A   Clear
10:34 AM 85.3 °F 90.1 °F 70.5 °F 61% 29.85 in 10.0 mi North - - N/A   Clear
10:53 AM 86.2 °F 91.1 °F 70.3 °F 59% 29.84 in 10.0 mi WSW 15.0 mph - N/A   Clear
11:13 AM 87.3 °F 92.0 °F 70.0 °F 56% 29.84 in 10.0 mi SW 16.1 mph 20.7 mph N/A   Clear
11:34 AM 88.5 °F 93.5 °F 69.8 °F 54% 29.84 in 10.0 mi SW 16.1 mph - N/A   Clear
11:53 AM 89.8 °F 95.1 °F 70.0 °F 52% 29.85 in 10.0 mi North - - N/A   Clear
12:13 PM 90.7 °F 95.4 °F 68.9 °F 49% 29.84 in 10.0 mi North - - N/A   Clear
12:34 PM 91.0 °F 95.2 °F 68.0 °F 47% 29.85 in 10.0 mi North - - N/A   Clear
12:53 PM 92.5 °F 96.9 °F 68.2 °F 45% 29.84 in 10.0 mi SW 16.1 mph - N/A   Clear
1:14 PM 92.1 °F 97.2 °F 69.3 °F 47% 29.85 in 10.0 mi SSW 15.0 mph 21.9 mph N/A   Clear
1:34 PM 93.9 °F 99.1 °F 69.1 °F 44% 29.84 in 10.0 mi North - - N/A   Clear
1:53 PM 94.5 °F 98.5 °F 67.3 °F 41% 29.84 in 10.0 mi SW 12.7 mph - N/A   Clear
2:14 PM 95.2 °F 98.8 °F 66.4 °F 39% 29.84 in 10.0 mi North - - N/A   Clear
2:34 PM 95.5 °F 100.0 °F 67.5 °F 40% 29.84 in 10.0 mi SSW 13.8 mph - N/A   Clear
2:53 PM 95.5 °F 98.9 °F 66.6 °F 38% 29.84 in 10.0 mi North - - N/A   Clear
3:14 PM 95.4 °F 98.1 °F 65.7 °F 37% 29.84 in 10.0 mi SW 20.7 mph - N/A   Clear
3:34 PM 95.2 °F 98.3 °F 65.7 °F 38% 29.83 in 10.0 mi SW 19.6 mph - N/A   Clear
3:53 PM 95.5 °F 98.4 °F 65.3 °F 37% 29.83 in 10.0 mi North - - N/A   Clear
4:14 PM 95.5 °F 98.4 °F 65.3 °F 37% 29.83 in 10.0 mi North - - N/A   Clear
4:34 PM 95.0 °F 97.0 °F 64.2 °F 36% 29.83 in 10.0 mi SW 21.9 mph - N/A   Clear
4:53 PM 95.0 °F 96.0 °F 62.8 °F 34% 29.83 in 10.0 mi North - - N/A   Clear
5:14 PM 94.6 °F 95.5 °F 62.4 °F 34% 29.83 in 10.0 mi North - - N/A   Clear
5:34 PM 94.3 °F 94.5 °F 61.3 °F 33% 29.83 in 10.0 mi North - - N/A   Clear
5:53 PM 93.7 °F 94.5 °F 62.2 °F 35% 29.83 in 10.0 mi North - - N/A   Clear
6:14 PM 92.8 °F 93.1 °F 61.7 °F 35% 29.83 in 10.0 mi North - - N/A   Clear
6:34 PM 91.8 °F 91.9 °F 61.0 °F 36% 29.83 in 10.0 mi North - - N/A   Clear
6:53 PM 90.5 °F 90.7 °F 61.3 °F 38% 29.84 in 10.0 mi North - - N/A   Clear
7:14 PM 89.1 °F 89.3 °F 61.9 °F 40% 29.85 in 10.0 mi North - - N/A   Clear
7:34 PM 87.6 °F 87.9 °F 61.7 °F 42% 29.86 in 10.0 mi North - - N/A   Clear
7:53 PM 85.6 °F 86.1 °F 62.1 °F 45% 29.88 in 10.0 mi North - - N/A   Clear
8:14 PM 83.3 °F 84.3 °F 63.1 °F 50% 29.89 in 10.0 mi SW 9.2 mph - N/A   Clear
8:33 PM 83.5 °F 84.7 °F 63.5 °F 51% 29.90 in 10.0 mi North - - N/A   Clear
8:53 PM 82.8 °F 84.0 °F 63.7 °F 52% 29.90 in 10.0 mi North - - N/A   Clear
9:14 PM 81.9 °F 83.2 °F 63.5 °F 54% 29.91 in 10.0 mi North - - N/A   Clear
9:33 PM 80.1 °F 81.6 °F 63.7 °F 57% 29.91 in 10.0 mi SW 6.9 mph - N/A   Clear
9:53 PM 80.4 °F 82.0 °F 63.9 °F 57% 29.91 in 10.0 mi SSW 4.6 mph - N/A   Clear
10:14 PM 79.0 °F - 64.4 °F 61% 29.91 in 10.0 mi SW 9.2 mph - N/A   Clear
10:34 PM 78.4 °F - 64.4 °F 62% 29.92 in 10.0 mi SW 5.8 mph - N/A   Clear
10:53 PM 77.9 °F - 64.4 °F 63% 29.92 in 10.0 mi SSW 8.1 mph - N/A   Clear
11:14 PM 78.1 °F - 64.4 °F 63% 29.91 in 10.0 mi SSW 10.4 mph - N/A   Clear
11:33 PM 77.7 °F - 64.4 °F 63% 29.90 in 10.0 mi SW 10.4 mph - N/A   Clear
11:53 PM 76.6 °F - 64.4 °F 66% 29.90 in 10.0 mi SW 9.2 mph - N/A   Clear